| time (UTC) | temp F | wind direction | speed knots | gust knots | rain 1hr in | rain 24hr in | rain mn in | humidity % | barometer mb |
| 20260508044005 | 42 | 342 | 0.0 | 0.9 | 0.00 | 0.00 | 0.00 | 92 | 1020.2 |
| 20260508043504 | 42 | 342 | 0.0 | 1.7 | 0.00 | 0.00 | 0.00 | 92 | 1020.2 |
| 20260508043025 | 42 | 344 | 0.0 | 1.7 | 0.00 | 0.00 | 0.00 | 93 | 1020.1 |
| 20260508042526 | 42 | 346 | 0.0 | 1.7 | 0.00 | 0.00 | 0.00 | 92 | 1020.0 |
| 20260508042005 | 41 | 348 | 0.0 | 0.9 | 0.00 | 0.00 | 0.00 | 93 | 1020.2 |
| 20260508041526 | 41 | 348 | 0.0 | 0.9 | 0.00 | 0.00 | 0.00 | 92 | 1020.1 |
| 20260508041004 | 41 | 350 | 0.0 | 0.9 | 0.00 | 0.00 | 0.00 | 93 | 1020.0 |
| 20260508040505 | 41 | 352 | 0.0 | 0.9 | 0.00 | 0.00 | 0.00 | 92 | 1020.0 |
| 20260508040025 | 41 | 353 | 0.0 | 0.9 | 0.00 | 0.00 | 0.00 | 92 | 1019.9 |
| 20260508035504 | 41 | 354 | 0.0 | 1.7 | 0.00 | 0.00 | 0.00 | 93 | 1019.9 |
| 20260508035005 | 41 | 354 | 0.0 | 0.9 | 0.00 | 0.00 | 0.00 | 92 | 1020.1 |
| 20260508034504 | 41 | 354 | 0.0 | 1.7 | 0.00 | 0.00 | 0.00 | 92 | 1019.9 |
| 20260508034005 | 41 | 358 | 0.0 | 1.7 | 0.00 | 0.00 | 0.00 | 92 | 1019.9 |
| 20260508033525 | 41 | 2 | 0.0 | 1.7 | 0.00 | 0.00 | 0.00 | 92 | 1019.9 |
| 20260508033026 | 41 | 355 | 0.0 | 0.9 | 0.00 | 0.00 | 0.00 | 92 | 1019.8 |
| 20260508032505 | 41 | 346 | 0.0 | 0.9 | 0.00 | 0.00 | 0.00 | 93 | 1019.9 |
| 20260508032004 | 41 | 339 | 0.0 | 0.9 | 0.00 | 0.00 | 0.00 | 92 | 1019.8 |
| 20260508031505 | 41 | 329 | 0.9 | 1.7 | 0.00 | 0.00 | 0.00 | 93 | 1019.8 |
| 20260508031005 | 41 | 325 | 0.9 | 2.6 | 0.00 | 0.00 | 0.00 | 92 | 1019.7 |
| 20260508030504 | 41 | 332 | 0.9 | 3.5 | 0.00 | 0.00 | 0.00 | 92 | 1019.6 |
| 20260508030004 | 41 | 341 | 0.9 | 3.5 | 0.00 | 0.00 | 0.00 | 92 | 1019.7 |
| 20260508025526 | 41 | 354 | 0.9 | 1.7 | 0.00 | 0.00 | 0.00 | 92 | 1019.7 |
| 20260508025025 | 41 | 356 | 0.9 | 1.7 | 0.00 | 0.00 | 0.00 | 92 | 1019.6 |
| 20260508024504 | 41 | 355 | 0.9 | 3.5 | 0.00 | 0.00 | 0.00 | 92 | 1019.6 |
| 20260508024004 | 41 | 359 | 0.9 | 3.5 | 0.00 | 0.00 | 0.00 | 92 | 1019.6 |
| 20260508023505 | 41 | 359 | 0.9 | 2.6 | 0.00 | 0.00 | 0.00 | 93 | 1019.5 |
| 20260508023004 | 41 | 356 | 0.9 | 3.5 | 0.00 | 0.00 | 0.00 | 93 | 1019.5 |
| 20260508022525 | 41 | 349 | 0.9 | 3.5 | 0.00 | 0.00 | 0.00 | 93 | 1019.3 |
| 20260508022004 | 41 | 328 | 0.0 | 2.6 | 0.00 | 0.00 | 0.00 | 93 | 1019.8 |
| 20260508021504 | 41 | 327 | 0.0 | 2.6 | 0.00 | 0.00 | 0.00 | 93 | 1019.6 |
| 20260508021005 | 41 | 337 | 0.9 | 2.6 | 0.00 | 0.00 | 0.00 | 93 | 1019.5 |
| 20260508020504 | 41 | 345 | 0.9 | 2.6 | 0.00 | 0.00 | 0.00 | 93 | 1019.5 |
| 20260508020004 | 41 | 348 | 0.9 | 1.7 | 0.00 | 0.00 | 0.00 | 93 | 1019.6 |
| 20260508015505 | 41 | 354 | 0.9 | 1.7 | 0.00 | 0.00 | 0.00 | 93 | 1019.4 |
| 20260508015004 | 41 | 356 | 0.9 | 1.7 | 0.00 | 0.00 | 0.00 | 93 | 1019.4 |
| 20260508014525 | 41 | 349 | 0.0 | 3.5 | 0.00 | 0.00 | 0.00 | 93 | 1019.5 |
| 20260508014004 | 41 | 344 | 0.0 | 3.5 | 0.00 | 0.00 | 0.00 | 94 | 1019.3 |
| 20260508013504 | 41 | 350 | 0.0 | 2.6 | 0.00 | 0.00 | 0.00 | 94 | 1019.5 |
| 20260508013004 | 41 | 353 | 0.0 | 2.6 | 0.00 | 0.00 | 0.00 | 94 | 1019.3 |
| 20260508012505 | 41 | 348 | 0.0 | 1.7 | 0.00 | 0.00 | 0.00 | 94 | 1019.3 |
| 20260508012005 | 41 | 347 | 0.0 | 0.9 | 0.00 | 0.00 | 0.00 | 94 | 1019.3 |
| 20260508011505 | 41 | 346 | 0.0 | 1.7 | 0.00 | 0.00 | 0.00 | 94 | 1019.3 |
| 20260508011004 | 41 | 347 | 0.0 | 2.6 | 0.00 | 0.00 | 0.00 | 94 | 1019.3 |
| 20260508010504 | 41 | 350 | 0.0 | 2.6 | 0.00 | 0.00 | 0.00 | 95 | 1019.1 |
| 20260508010005 | 41 | 351 | 0.0 | 2.6 | 0.00 | 0.00 | 0.00 | 95 | 1019.4 |
| 20260508005526 | 41 | 352 | 0.9 | 2.6 | 0.00 | 0.00 | 0.00 | 95 | 1019.2 |
| 20260508005004 | 41 | 353 | 0.0 | 1.7 | 0.00 | 0.00 | 0.00 | 95 | 1019.3 |
| 20260508004525 | 41 | 355 | 0.0 | 1.7 | 0.00 | 0.00 | 0.00 | 95 | 1019.2 |
| 20260508004004 | 41 | 357 | 0.0 | 0.9 | 0.00 | 0.00 | 0.00 | 95 | 1019.3 |
| 20260508003525 | 41 | 358 | 0.0 | 0.9 | 0.00 | 0.00 | 0.00 | 95 | 1019.2 |
| 20260508003005 | 41 | 360 | 0.0 | 0.9 | 0.00 | 0.00 | 0.00 | 95 | 1019.3 |
| 20260508002504 | 41 | 360 | 0.0 | 2.6 | 0.00 | 0.00 | 0.00 | 95 | 1019.3 |
| 20260508002004 | 41 | 359 | 0.0 | 2.6 | 0.00 | 0.00 | 0.00 | 95 | 1019.5 |
| 20260508001504 | 41 | 358 | 0.0 | 1.7 | 0.00 | 0.00 | 0.00 | 95 | 1019.5 |
| 20260508001025 | 41 | 4 | 0.0 | 0.9 | 0.00 | 0.00 | 0.00 | 96 | 1019.6 |
| 20260508000525 | 41 | 6 | 0.0 | 0.9 | 0.00 | 0.00 | 0.00 | 96 | 1019.5 |
| 20260508000005 | 41 | 5 | 0.0 | 1.7 | 0.00 | 0.00 | 0.00 | 96 | 1019.4 |
| 20260507235505 | 41 | 358 | 0.0 | 1.7 | 0.00 | 0.00 | 0.00 | 97 | 1019.4 |
| 20260507235004 | 41 | 353 | 0.0 | 0.9 | 0.00 | 0.00 | 0.00 | 97 | 1019.4 |
| 20260507234504 | 41 | 353 | 0.0 | 1.7 | 0.00 | 0.00 | 0.00 | 97 | 1019.4 |
| 20260507234005 | 41 | 360 | 0.0 | 1.7 | 0.00 | 0.00 | 0.00 | 97 | 1019.4 |
| 20260507233504 | 41 | 6 | 0.0 | 1.7 | 0.00 | 0.00 | 0.00 | 97 | 1019.3 |
| 20260507233025 | 41 | 352 | 0.0 | 1.7 | 0.00 | 0.00 | 0.00 | 97 | 1019.2 |
| 20260507232525 | 40 | 340 | 0.0 | 0.9 | 0.00 | 0.00 | 0.00 | 98 | 1019.1 |
| 20260507232004 | 40 | 341 | 0.0 | 1.7 | 0.00 | 0.00 | 0.00 | 98 | 1018.9 |
| 20260507231504 | 40 | 342 | 0.9 | 1.7 | 0.00 | 0.00 | 0.00 | 98 | 1019.1 |
| 20260507231004 | 40 | 344 | 0.0 | 1.7 | 0.00 | 0.00 | 0.00 | 98 | 1019.0 |
| 20260507230504 | 40 | 344 | 0.0 | 1.7 | 0.00 | 0.00 | 0.00 | 98 | 1019.1 |
| 20260507230025 | 40 | 344 | 0.0 | 1.7 | 0.00 | 0.00 | 0.00 | 98 | 1019.0 |
| 20260507225505 | 40 | 344 | 0.0 | 1.7 | 0.00 | 0.00 | 0.00 | 98 | 1019.1 |
| 20260507225004 | 40 | 344 | 0.0 | 1.7 | 0.00 | 0.00 | 0.00 | 98 | 1019.0 |
| 20260507224505 | 40 | 344 | 0.0 | 0.9 | 0.00 | 0.00 | 0.00 | 98 | 1019.1 |
| 20260507224004 | 39 | 344 | 0.0 | 1.7 | 0.00 | 0.00 | 0.00 | 98 | 1019.1 |
| 20260507223504 | 39 | 344 | 0.0 | 1.7 | 0.00 | 0.00 | 0.00 | 98 | 1019.2 |
| 20260507223025 | 39 | 343 | 0.0 | 0.9 | 0.00 | 0.00 | 0.00 | 97 | 1019.3 |
| 20260507222505 | 39 | 0 | 0.0 | 0.0 | 0.00 | 0.00 | 0.00 | 97 | 1019.2 |
| 20260507222004 | 39 | 0 | 0.0 | 0.0 | 0.00 | 0.01 | 0.00 | 97 | 1019.3 |
| 20260507221505 | 39 | 0 | 0.0 | 0.0 | 0.00 | 0.01 | 0.00 | 97 | 1019.2 |
| 20260507221005 | 39 | 0 | 0.0 | 0.0 | 0.00 | 0.01 | 0.00 | 97 | 1019.2 |
| 20260507220525 | 39 | 343 | 0.0 | 0.9 | 0.00 | 0.01 | 0.00 | 97 | 1019.3 |
| 20260507220006 | 39 | 343 | 0.0 | 0.9 | 0.00 | 0.01 | 0.00 | 97 | 1019.2 |
| 20260507215504 | 39 | 0 | 0.0 | 0.0 | 0.00 | 0.01 | 0.01 | 97 | 1019.1 |
| 20260507215004 | 39 | 0 | 0.0 | 0.0 | 0.00 | 0.01 | 0.01 | 97 | 1019.3 |
| 20260507214505 | 39 | 0 | 0.0 | 0.0 | 0.00 | 0.01 | 0.01 | 97 | 1019.2 |
| 20260507214005 | 39 | 343 | 0.0 | 0.9 | 0.00 | 0.01 | 0.01 | 97 | 1019.2 |
| 20260507213504 | 39 | 343 | 0.0 | 0.9 | 0.00 | 0.01 | 0.01 | 97 | 1019.1 |
| 20260507213026 | 39 | 343 | 0.0 | 0.9 | 0.00 | 0.01 | 0.01 | 97 | 1019.1 |
| 20260507212504 | 40 | 343 | 0.0 | 0.9 | 0.00 | 0.01 | 0.01 | 96 | 1019.2 |
| 20260507212004 | 40 | 0 | 0.0 | 0.0 | 0.00 | 0.01 | 0.01 | 96 | 1019.0 |
| 20260507211504 | 40 | 343 | 0.0 | 0.9 | 0.00 | 0.01 | 0.01 | 96 | 1019.1 |
| 20260507211005 | 40 | 343 | 0.0 | 0.9 | 0.00 | 0.01 | 0.01 | 96 | 1019.1 |
| 20260507210504 | 40 | 344 | 0.0 | 1.7 | 0.00 | 0.01 | 0.01 | 96 | 1018.8 |
| 20260507210005 | 40 | 345 | 0.0 | 1.7 | 0.00 | 0.01 | 0.01 | 96 | 1018.8 |
| 20260507205504 | 40 | 345 | 0.0 | 0.9 | 0.00 | 0.01 | 0.01 | 96 | 1018.7 |
| 20260507205004 | 40 | 345 | 0.0 | 0.9 | 0.00 | 0.01 | 0.01 | 96 | 1018.6 |
| 20260507204505 | 40 | 344 | 0.0 | 0.9 | 0.00 | 0.01 | 0.01 | 96 | 1018.6 |
| 20260507204025 | 40 | 0 | 0.0 | 0.0 | 0.00 | 0.01 | 0.01 | 96 | 1018.6 |
| 20260507203504 | 39 | 344 | 0.0 | 1.7 | 0.00 | 0.01 | 0.01 | 96 | 1018.5 |
| 20260507203004 | 39 | 345 | 0.0 | 1.7 | 0.00 | 0.01 | 0.01 | 96 | 1018.5 |
| 20260507202504 | 39 | 349 | 0.0 | 0.9 | 0.00 | 0.01 | 0.01 | 96 | 1018.6 |
| 20260507202025 | 39 | 355 | 0.0 | 0.9 | 0.00 | 0.01 | 0.01 | 95 | 1018.5 |
| 20260507201505 | 39 | 356 | 0.0 | 0.9 | 0.00 | 0.01 | 0.01 | 95 | 1018.4 |
| 20260507201005 | 39 | 356 | 0.0 | 0.9 | 0.00 | 0.01 | 0.01 | 95 | 1018.1 |
| 20260507200504 | 39 | 356 | 0.0 | 0.9 | 0.00 | 0.01 | 0.01 | 95 | 1018.1 |
| 20260507200004 | 39 | 356 | 0.0 | 0.9 | 0.00 | 0.01 | 0.01 | 94 | 1018.0 |
| 20260507195504 | 39 | 355 | 0.0 | 2.6 | 0.00 | 0.01 | 0.01 | 94 | 1017.9 |
| 20260507195004 | 39 | 353 | 0.0 | 2.6 | 0.00 | 0.01 | 0.01 | 94 | 1018.0 |
| 20260507194504 | 40 | 351 | 0.0 | 1.7 | 0.00 | 0.01 | 0.01 | 93 | 1017.9 |
| 20260507194004 | 40 | 346 | 0.0 | 1.7 | 0.00 | 0.01 | 0.01 | 93 | 1017.9 |
| 20260507193504 | 40 | 345 | 0.0 | 1.7 | 0.00 | 0.01 | 0.01 | 92 | 1017.6 |
| 20260507193005 | 40 | 344 | 0.0 | 1.7 | 0.00 | 0.01 | 0.01 | 91 | 1017.8 |
| 20260507192505 | 40 | 345 | 0.0 | 1.7 | 0.00 | 0.01 | 0.01 | 91 | 1017.7 |
| 20260507192004 | 41 | 344 | 0.0 | 1.7 | 0.00 | 0.01 | 0.01 | 90 | 1017.7 |
| 20260507191505 | 41 | 342 | 0.0 | 1.7 | 0.00 | 0.01 | 0.01 | 89 | 1017.6 |
| 20260507191004 | 41 | 342 | 0.0 | 1.7 | 0.00 | 0.01 | 0.01 | 88 | 1017.5 |
| 20260507190504 | 41 | 344 | 0.0 | 1.7 | 0.00 | 0.01 | 0.01 | 87 | 1017.7 |
| 20260507190005 | 42 | 346 | 0.0 | 0.9 | 0.00 | 0.01 | 0.01 | 86 | 1017.4 |
| 20260507185526 | 42 | 344 | 0.0 | 1.7 | 0.00 | 0.01 | 0.01 | 86 | 1017.5 |
| 20260507185004 | 42 | 343 | 0.0 | 1.7 | 0.00 | 0.01 | 0.01 | 85 | 1017.5 |
| 20260507184504 | 42 | 343 | 0.0 | 0.9 | 0.00 | 0.01 | 0.01 | 85 | 1017.4 |
| 20260507184004 | 42 | 342 | 0.0 | 0.9 | 0.00 | 0.02 | 0.01 | 84 | 1017.5 |
| 20260507183504 | 42 | 342 | 0.0 | 1.7 | 0.00 | 0.02 | 0.01 | 83 | 1017.5 |
| 20260507183005 | 43 | 342 | 0.0 | 1.7 | 0.00 | 0.02 | 0.01 | 84 | 1017.4 |
| 20260507182504 | 43 | 342 | 0.0 | 1.7 | 0.00 | 0.02 | 0.01 | 83 | 1017.2 |
| 20260507182004 | 43 | 342 | 0.0 | 0.9 | 0.00 | 0.02 | 0.01 | 82 | 1017.3 |
| 20260507181505 | 43 | 342 | 0.0 | 0.9 | 0.00 | 0.02 | 0.01 | 82 | 1017.4 |
| 20260507181025 | 43 | 343 | 0.0 | 1.7 | 0.00 | 0.02 | 0.01 | 81 | 1017.3 |
| 20260507180504 | 44 | 345 | 0.0 | 1.7 | 0.00 | 0.02 | 0.01 | 81 | 1017.2 |
| 20260507180005 | 44 | 334 | 0.0 | 2.6 | 0.00 | 0.02 | 0.01 | 81 | 1017.1 |
| 20260507175504 | 44 | 328 | 0.9 | 2.6 | 0.00 | 0.02 | 0.01 | 81 | 1017.2 |
| 20260507175004 | 44 | 327 | 0.0 | 0.9 | 0.00 | 0.02 | 0.01 | 81 | 1017.1 |
| 20260507174504 | 45 | 329 | 0.0 | 2.6 | 0.00 | 0.02 | 0.01 | 82 | 1017.0 |
| 20260507174004 | 45 | 333 | 0.0 | 2.6 | 0.00 | 0.02 | 0.01 | 80 | 1017.1 |
| 20260507173525 | 45 | 342 | 0.0 | 1.7 | 0.00 | 0.02 | 0.01 | 81 | 1017.0 |
| 20260507173004 | 45 | 342 | 0.0 | 0.9 | 0.00 | 0.02 | 0.01 | 80 | 1017.1 |
| 20260507172503 | 46 | 342 | 0.0 | 1.7 | 0.00 | 0.02 | 0.01 | 79 | 1017.0 |
| 20260507172025 | 46 | 342 | 0.0 | 1.7 | 0.00 | 0.03 | 0.01 | 79 | 1016.7 |
| 20260507171504 | 46 | 342 | 0.0 | 1.7 | 0.00 | 0.03 | 0.01 | 79 | 1016.9 |
| 20260507171004 | 46 | 345 | 0.0 | 2.6 | 0.00 | 0.03 | 0.01 | 79 | 1016.8 |
| 20260507170504 | 46 | 350 | 0.0 | 2.6 | 0.00 | 0.03 | 0.01 | 76 | 1016.8 |
| 20260507170026 | 47 | 350 | 0.0 | 3.5 | 0.00 | 0.04 | 0.01 | 76 | 1016.7 |
| 20260507165504 | 47 | 348 | 0.0 | 3.5 | 0.00 | 0.04 | 0.01 | 77 | 1016.7 |
| 20260507165004 | 47 | 347 | 0.0 | 1.7 | 0.00 | 0.04 | 0.01 | 77 | 1016.6 |
| 20260507164526 | 47 | 346 | 0.0 | 1.7 | 0.00 | 0.04 | 0.01 | 78 | 1016.6 |
| 20260507164004 | 47 | 324 | 0.0 | 2.6 | 0.00 | 0.04 | 0.01 | 77 | 1016.5 |
| 20260507163503 | 47 | 317 | 0.9 | 2.6 | 0.00 | 0.04 | 0.01 | 75 | 1016.9 |
| 20260507163005 | 47 | 312 | 0.9 | 5.2 | 0.00 | 0.05 | 0.01 | 75 | 1016.4 |
| 20260507162505 | 47 | 332 | 0.9 | 5.2 | 0.00 | 0.05 | 0.01 | 77 | 1016.6 |
| 20260507162004 | 47 | 340 | 0.9 | 5.2 | 0.00 | 0.05 | 0.01 | 75 | 1016.6 |
| 20260507161526 | 47 | 313 | 0.9 | 2.6 | 0.00 | 0.05 | 0.01 | 74 | 1016.6 |
| 20260507161005 | 47 | 303 | 0.9 | 3.5 | 0.00 | 0.05 | 0.01 | 76 | 1016.6 |
| 20260507160506 | 47 | 324 | 0.9 | 3.5 | 0.00 | 0.05 | 0.01 | 75 | 1016.7 |
| 20260507160004 | 47 | 11 | 0.9 | 3.5 | 0.00 | 0.06 | 0.01 | 75 | 1016.5 |
| 20260507155503 | 47 | 327 | 0.9 | 3.5 | 0.00 | 0.06 | 0.01 | 76 | 1016.4 |
| 20260507155004 | 47 | 303 | 0.9 | 3.5 | 0.00 | 0.06 | 0.01 | 76 | 1016.4 |
| 20260507154505 | 47 | 331 | 0.9 | 2.6 | 0.00 | 0.06 | 0.01 | 75 | 1016.4 |
| 20260507154025 | 47 | 344 | 0.9 | 2.6 | 0.00 | 0.06 | 0.01 | 75 | 1016.3 |
| 20260507153504 | 47 | 332 | 0.9 | 5.2 | 0.00 | 0.06 | 0.01 | 76 | 1016.3 |
| 20260507153004 | 47 | 337 | 0.9 | 5.2 | 0.00 | 0.06 | 0.01 | 77 | 1016.3 |
| 20260507152526 | 47 | 353 | 0.9 | 6.1 | 0.00 | 0.06 | 0.01 | 76 | 1016.1 |
| 20260507152004 | 47 | 9 | 0.9 | 6.1 | 0.00 | 0.06 | 0.01 | 78 | 1016.4 |
| 20260507151504 | 47 | 1 | 0.9 | 6.1 | 0.00 | 0.07 | 0.01 | 77 | 1016.1 |
| 20260507151004 | 47 | 330 | 0.9 | 6.1 | 0.00 | 0.07 | 0.01 | 76 | 1016.2 |
| 20260507150525 | 48 | 2 | 0.9 | 6.1 | 0.00 | 0.07 | 0.01 | 75 | 1016.3 |
| 20260507150004 | 48 | 42 | 1.7 | 6.1 | 0.00 | 0.07 | 0.01 | 73 | 1016.2 |
| 20260507145505 | 49 | 46 | 1.7 | 6.1 | 0.00 | 0.07 | 0.01 | 71 | 1016.3 |
| 20260507145004 | 50 | 20 | 0.9 | 3.5 | 0.00 | 0.08 | 0.01 | 69 | 1016.0 |
| 20260507144505 | 51 | 312 | 0.9 | 5.2 | 0.00 | 0.08 | 0.01 | 70 | 1016.0 |
| 20260507144004 | 51 | 300 | 0.9 | 5.2 | 0.00 | 0.09 | 0.01 | 72 | 1016.2 |
| 20260507143504 | 50 | 291 | 0.9 | 3.5 | 0.00 | 0.09 | 0.01 | 75 | 1016.0 |
| 20260507143004 | 50 | 314 | 0.9 | 3.5 | 0.00 | 0.09 | 0.01 | 74 | 1015.8 |
| 20260507142504 | 50 | 323 | 0.9 | 3.5 | 0.00 | 0.09 | 0.01 | 73 | 1015.8 |
| 20260507142004 | 49 | 327 | 0.9 | 5.2 | 0.00 | 0.09 | 0.01 | 74 | 1015.8 |
| 20260507141524 | 50 | 341 | 0.9 | 5.2 | 0.00 | 0.09 | 0.01 | 73 | 1015.9 |
| 20260507141004 | 50 | 351 | 0.9 | 3.5 | 0.00 | 0.10 | 0.01 | 74 | 1015.7 |
| 20260507140525 | 50 | 344 | 0.9 | 5.2 | 0.00 | 0.10 | 0.01 | 76 | 1015.8 |
| 20260507140006 | 50 | 335 | 0.9 | 5.2 | 0.00 | 0.10 | 0.01 | 72 | 1015.8 |
| 20260507135505 | 49 | 324 | 0.9 | 5.2 | 0.00 | 0.11 | 0.01 | 78 | 1015.8 |
| 20260507135004 | 49 | 325 | 1.7 | 7.0 | 0.00 | 0.11 | 0.01 | 75 | 1015.9 |
| 20260507134503 | 50 | 359 | 0.9 | 7.0 | 0.00 | 0.11 | 0.01 | 72 | 1015.6 |
| 20260507134005 | 50 | 2 | 0.9 | 3.5 | 0.00 | 0.12 | 0.01 | 72 | 1015.8 |
| 20260507133504 | 50 | 355 | 0.9 | 6.1 | 0.00 | 0.12 | 0.01 | 75 | 1015.9 |
| 20260507133005 | 50 | 319 | 1.7 | 6.1 | 0.00 | 0.13 | 0.01 | 75 | 1015.8 |
| 20260507132525 | 50 | 293 | 1.7 | 7.0 | 0.00 | 0.14 | 0.01 | 73 | 1015.8 |
| 20260507132004 | 50 | 313 | 0.9 | 7.8 | 0.00 | 0.14 | 0.01 | 73 | 1015.7 |
| 20260507131505 | 50 | 324 | 0.9 | 7.8 | 0.00 | 0.15 | 0.01 | 73 | 1015.8 |
| 20260507131005 | 50 | 336 | 0.9 | 5.2 | 0.00 | 0.15 | 0.01 | 72 | 1015.7 |
| 20260507130504 | 50 | 336 | 1.7 | 7.0 | 0.00 | 0.15 | 0.01 | 74 | 1015.4 |
| 20260507130005 | 49 | 334 | 1.7 | 7.8 | 0.00 | 0.15 | 0.01 | 74 | 1015.6 |
| 20260507125505 | 49 | 333 | 1.7 | 7.8 | 0.00 | 0.15 | 0.01 | 73 | 1015.5 |
| 20260507125004 | 49 | 340 | 1.7 | 7.8 | 0.00 | 0.15 | 0.01 | 74 | 1015.4 |
| 20260507124524 | 50 | 347 | 0.9 | 5.2 | 0.00 | 0.15 | 0.01 | 73 | 1015.5 |
| 20260507124005 | 51 | 335 | 0.9 | 7.0 | 0.00 | 0.15 | 0.01 | 74 | 1015.4 |
| 20260507123504 | 51 | 319 | 1.7 | 7.0 | 0.00 | 0.15 | 0.01 | 68 | 1015.5 |
| 20260507123003 | 52 | 319 | 0.9 | 6.1 | 0.00 | 0.15 | 0.01 | 71 | 1015.5 |
| 20260507122503 | 52 | 335 | 1.7 | 6.1 | 0.00 | 0.15 | 0.01 | 70 | 1015.3 |
| 20260507122004 | 52 | 323 | 1.7 | 9.6 | 0.00 | 0.15 | 0.01 | 73 | 1015.2 |
| 20260507121503 | 51 | 302 | 0.9 | 9.6 | 0.00 | 0.15 | 0.01 | 72 | 1015.1 |
| 20260507121026 | 51 | 310 | 0.9 | 3.5 | 0.00 | 0.15 | 0.01 | 72 | 1015.1 |
| 20260507120504 | 51 | 316 | 0.9 | 5.2 | 0.00 | 0.15 | 0.01 | 72 | 1015.1 |
| 20260507120024 | 51 | 337 | 1.7 | 5.2 | 0.00 | 0.15 | 0.01 | 74 | 1015.2 |
| 20260507115504 | 51 | 334 | 1.7 | 3.5 | 0.00 | 0.15 | 0.01 | 72 | 1014.9 |
| 20260507115004 | 51 | 317 | 1.7 | 6.1 | 0.00 | 0.15 | 0.01 | 68 | 1015.1 |
| 20260507114503 | 52 | 321 | 0.9 | 7.0 | 0.00 | 0.15 | 0.01 | 71 | 1014.8 |
| 20260507114003 | 52 | 327 | 0.9 | 7.0 | 0.00 | 0.15 | 0.01 | 73 | 1014.9 |
| 20260507113504 | 52 | 343 | 0.9 | 6.1 | 0.00 | 0.15 | 0.01 | 69 | 1014.8 |
| 20260507113004 | 51 | 349 | 1.7 | 6.1 | 0.00 | 0.15 | 0.01 | 71 | 1014.9 |
| 20260507112526 | 51 | 337 | 1.7 | 6.1 | 0.00 | 0.16 | 0.01 | 74 | 1014.8 |
| 20260507112025 | 49 | 312 | 1.7 | 7.8 | 0.00 | 0.17 | 0.01 | 74 | 1014.7 |
| 20260507111504 | 50 | 301 | 1.7 | 7.8 | 0.00 | 0.17 | 0.01 | 74 | 1014.8 |
| 20260507111003 | 50 | 289 | 1.7 | 7.0 | 0.00 | 0.17 | 0.01 | 73 | 1014.8 |
| 20260507110504 | 49 | 302 | 1.7 | 7.0 | 0.00 | 0.17 | 0.01 | 75 | 1014.8 |
| 20260507110025 | 50 | 322 | 0.9 | 6.1 | 0.00 | 0.17 | 0.01 | 72 | 1014.7 |
| 20260507105504 | 50 | 304 | 0.9 | 3.5 | 0.00 | 0.17 | 0.01 | 76 | 1014.6 |
| 20260507105004 | 49 | 314 | 0.9 | 5.2 | 0.00 | 0.17 | 0.01 | 79 | 1014.6 |
| 20260507104504 | 49 | 326 | 1.7 | 6.1 | 0.00 | 0.18 | 0.01 | 77 | 1014.7 |
| 20260507104004 | 48 | 314 | 1.7 | 6.1 | 0.00 | 0.19 | 0.01 | 77 | 1014.5 |
| 20260507103504 | 48 | 296 | 0.9 | 3.5 | 0.00 | 0.20 | 0.01 | 81 | 1014.6 |
| 20260507103004 | 48 | 294 | 0.9 | 5.2 | 0.00 | 0.21 | 0.01 | 81 | 1014.7 |
| 20260507102504 | 48 | 306 | 0.9 | 5.2 | 0.00 | 0.22 | 0.01 | 79 | 1014.6 |
| 20260507102007 | 49 | 316 | 0.9 | 5.2 | 0.00 | 0.23 | 0.01 | 79 | 1014.4 |
| 20260507101503 | 49 | 317 | 0.9 | 2.6 | 0.00 | 0.24 | 0.01 | 81 | 1014.4 |
| 20260507101003 | 48 | 320 | 0.9 | 3.5 | 0.00 | 0.27 | 0.01 | 84 | 1014.4 |
| 20260507100504 | 47 | 328 | 0.9 | 5.2 | 0.00 | 0.30 | 0.01 | 82 | 1014.3 |
| 20260507100004 | 47 | 322 | 1.7 | 7.0 | 0.00 | 0.33 | 0.01 | 83 | 1014.4 |
| 20260507095504 | 47 | 305 | 1.7 | 7.0 | 0.00 | 0.35 | 0.01 | 80 | 1014.3 |
| 20260507095004 | 47 | 289 | 0.9 | 3.5 | 0.00 | 0.37 | 0.01 | 81 | 1014.3 |
| 20260507094524 | 47 | 324 | 0.9 | 2.6 | 0.00 | 0.39 | 0.01 | 83 | 1014.2 |
| 20260507094004 | 47 | 338 | 0.9 | 5.2 | 0.00 | 0.43 | 0.01 | 82 | 1014.2 |
| 20260507093504 | 47 | 336 | 0.9 | 6.1 | 0.00 | 0.45 | 0.01 | 84 | 1014.2 |
| 20260507093005 | 47 | 340 | 0.9 | 6.1 | 0.00 | 0.47 | 0.01 | 83 | 1014.2 |
| 20260507092503 | 47 | 326 | 0.9 | 5.2 | 0.00 | 0.51 | 0.01 | 85 | 1014.2 |
| 20260507092025 | 47 | 330 | 0.9 | 3.5 | 0.00 | 0.54 | 0.01 | 84 | 1014.1 |
| 20260507091503 | 47 | 357 | 1.7 | 3.5 | 0.00 | 0.56 | 0.01 | 86 | 1013.9 |
| 20260507091024 | 46 | 353 | 0.9 | 3.5 | 0.00 | 0.58 | 0.01 | 83 | 1014.0 |
| 20260507090525 | 47 | 346 | 0.9 | 6.1 | 0.00 | 0.60 | 0.01 | 84 | 1014.0 |
| 20260507090025 | 47 | 349 | 0.9 | 6.1 | 0.00 | 0.62 | 0.01 | 85 | 1014.0 |
| 20260507085503 | 46 | 340 | 0.9 | 5.2 | 0.00 | 0.64 | 0.01 | 83 | 1013.8 |
| 20260507085005 | 46 | 336 | 0.9 | 6.1 | 0.00 | 0.66 | 0.01 | 84 | 1013.8 |
| 20260507084525 | 46 | 333 | 0.9 | 6.1 | 0.00 | 0.67 | 0.01 | 84 | 1013.9 |
| 20260507084004 | 46 | 337 | 1.7 | 8.7 | 0.00 | 0.69 | 0.01 | 83 | 1013.7 |
| 20260507083505 | 46 | 341 | 1.7 | 8.7 | 0.00 | 0.70 | 0.01 | 84 | 1013.8 |
| 20260507083005 | 46 | 348 | 0.9 | 3.5 | 0.00 | 0.72 | 0.01 | 82 | 1013.7 |
| 20260507082526 | 46 | 357 | 0.9 | 8.7 | 0.00 | 0.73 | 0.01 | 85 | 1013.6 |
| 20260507082005 | 45 | 2 | 0.9 | 8.7 | 0.00 | 0.74 | 0.01 | 83 | 1013.7 |
| 20260507081504 | 45 | 12 | 0.9 | 6.1 | 0.00 | 0.75 | 0.01 | 84 | 1013.7 |
| 20260507081004 | 45 | 348 | 0.9 | 5.2 | 0.00 | 0.76 | 0.01 | 85 | 1013.7 |
| 20260507080505 | 45 | 328 | 0.9 | 5.2 | 0.00 | 0.77 | 0.01 | 85 | 1013.5 |
| 20260507080006 | 45 | 324 | 0.9 | 7.8 | 0.00 | 0.78 | 0.01 | 87 | 1013.6 |
| 20260507075525 | 45 | 337 | 0.9 | 7.8 | 0.00 | 0.80 | 0.01 | 87 | 1013.5 |
| 20260507075004 | 44 | 343 | 0.9 | 6.1 | 0.00 | 0.81 | 0.01 | 86 | 1013.4 |
| 20260507074505 | 44 | 330 | 0.9 | 3.5 | 0.00 | 0.82 | 0.01 | 89 | 1013.4 |
| 20260507074005 | 44 | 323 | 0.9 | 3.5 | 0.00 | 0.83 | 0.01 | 89 | 1013.4 |
| 20260507073505 | 44 | 308 | 0.9 | 3.5 | 0.00 | 0.84 | 0.01 | 87 | 1013.3 |
| 20260507073005 | 44 | 304 | 0.9 | 6.1 | 0.00 | 0.85 | 0.01 | 88 | 1013.2 |
| 20260507072504 | 44 | 332 | 1.7 | 7.8 | 0.00 | 0.87 | 0.01 | 88 | 1013.2 |
| 20260507072006 | 44 | 351 | 1.7 | 7.8 | 0.00 | 0.87 | 0.01 | 88 | 1013.2 |
| 20260507071504 | 44 | 345 | 0.9 | 3.5 | 0.00 | 0.88 | 0.01 | 90 | 1013.2 |
| 20260507071007 | 44 | 337 | 0.9 | 3.5 | 0.00 | 0.88 | 0.01 | 90 | 1013.3 |
| 20260507070504 | 44 | 342 | 0.9 | 3.5 | 0.00 | 0.89 | 0.01 | 91 | 1013.1 |
| 20260507070026 | 43 | 330 | 0.9 | 3.5 | 0.00 | 0.89 | 0.01 | 92 | 1013.1 |
| 20260507065504 | 43 | 335 | 0.9 | 2.6 | 0.00 | 0.89 | 0.01 | 91 | 1013.1 |
| 20260507065004 | 43 | 351 | 0.9 | 2.6 | 0.00 | 0.89 | 0.01 | 93 | 1013.0 |
| 20260507064505 | 43 | 348 | 0.9 | 2.6 | 0.00 | 0.89 | 0.01 | 94 | 1013.0 |
| 20260507064005 | 43 | 343 | 0.9 | 2.6 | 0.00 | 0.89 | 0.01 | 94 | 1013.0 |
| 20260507063504 | 42 | 350 | 0.9 | 2.6 | 0.00 | 0.89 | 0.01 | 95 | 1013.0 |
| 20260507063025 | 42 | 357 | 0.9 | 5.2 | 0.00 | 0.89 | 0.01 | 96 | 1012.8 |
| 20260507062505 | 42 | 321 | 0.9 | 5.2 | 0.00 | 0.89 | 0.01 | 96 | 1012.6 |
| 20260507062004 | 42 | 285 | 0.9 | 5.2 | 0.00 | 0.89 | 0.01 | 97 | 1012.5 |
| 20260507061505 | 42 | 318 | 0.9 | 3.5 | 0.00 | 0.89 | 0.01 | 98 | 1012.5 |
| 20260507061004 | 42 | 334 | 0.9 | 6.1 | 0.00 | 0.90 | 0.01 | 99 | 1012.5 |
| 20260507060505 | 42 | 330 | 0.9 | 6.1 | 0.00 | 0.90 | 0.01 | 99 | 1012.7 |
| 20260507060006 | 41 | 326 | 0.9 | 3.5 | 0.00 | 0.90 | 0.01 | 99 | 1012.6 |
| 20260507055505 | 41 | 328 | 0.9 | 3.5 | 0.00 | 0.90 | 0.01 | 99 | 1012.6 |
| 20260507055026 | 41 | 328 | 0.9 | 2.6 | 0.00 | 0.90 | 0.01 | 99 | 1012.5 |
| 20260507054526 | 41 | 332 | 0.9 | 2.6 | 0.00 | 0.90 | 0.01 | 99 | 1012.4 |
| 20260507054005 | 41 | 333 | 0.9 | 3.5 | 0.00 | 0.90 | 0.01 | 99 | 1012.3 |
| 20260507053504 | 41 | 331 | 0.9 | 3.5 | 0.00 | 0.90 | 0.01 | 99 | 1012.1 |
| 20260507053005 | 41 | 334 | 0.9 | 5.2 | 0.00 | 0.90 | 0.01 | 99 | 1012.2 |
| 20260507052504 | 41 | 340 | 0.9 | 5.2 | 0.00 | 0.90 | 0.01 | 99 | 1012.0 |
| 20260507052005 | 41 | 339 | 0.9 | 11.3 | 0.00 | 0.90 | 0.01 | 99 | 1012.1 |
| 20260507051505 | 41 | 334 | 0.9 | 11.3 | 0.00 | 0.90 | 0.01 | 99 | 1011.9 |
| 20260507051004 | 41 | 326 | 0.9 | 3.5 | 0.00 | 0.90 | 0.01 | 99 | 1011.8 |
| 20260507050505 | 41 | 319 | 0.9 | 2.6 | 0.00 | 0.90 | 0.01 | 99 | 1011.8 |
| 20260507050005 | 41 | 332 | 0.9 | 3.5 | 0.00 | 0.90 | 0.01 | 99 | 1011.6 |
| 20260507045504 | 41 | 335 | 0.9 | 3.5 | 0.00 | 0.90 | 0.01 | 99 | 1011.9 |
| 20260507045004 | 40 | 328 | 0.9 | 3.5 | 0.00 | 0.90 | 0.01 | 99 | 1011.8 |
| 20260507044525 | 41 | 319 | 0.9 | 3.5 | 0.00 | 0.90 | 0.01 | 99 | 1011.8 |